| time (UTC) | temp F | wind direction | speed MPH | gust MPH | rain 1hr in | rain 24hr in | rain mn in | humidity % | barometer mb |
| 20260903202359 | 93 | 190 | 7.0 | 13.0 | 0.00 | 0.00 | 0.00 | 57 | 1009.4 |
| 20260903201833 | 92 | 124 | 8.0 | 16.0 | 0.00 | 0.00 | 0.00 | 58 | 1009.4 |
| 20260903200355 | 91 | 167 | 9.0 | 18.0 | 0.00 | 0.00 | 0.00 | 59 | 1009.4 |
| 20260903195356 | 91 | 157 | 10.0 | 16.0 | 0.00 | 0.00 | 0.00 | 59 | 1009.5 |
| 20260903194357 | 92 | 204 | 10.0 | 17.0 | 0.00 | 0.00 | 0.00 | 59 | 1009.7 |
| 20260903193356 | 92 | 205 | 7.0 | 15.0 | 0.00 | 0.00 | 0.00 | 58 | 1009.8 |
| 20260903192846 | 91 | 194 | 8.0 | 17.0 | 0.00 | 0.00 | 0.00 | 58 | 1009.9 |
| 20260903191847 | 91 | 183 | 8.0 | 17.0 | 0.00 | 0.00 | 0.00 | 58 | 1010.1 |
| 20260903190355 | 91 | 180 | 5.0 | 12.0 | 0.00 | 0.00 | 0.00 | 60 | 1010.3 |
| 20260903185828 | 91 | 199 | 5.0 | 18.0 | 0.00 | 0.00 | 0.00 | 59 | 1010.5 |
| 20260903184839 | 91 | 136 | 7.0 | 16.0 | 0.00 | 0.00 | 0.00 | 59 | 1010.6 |
| 20260903183352 | 91 | 173 | 6.0 | 15.0 | 0.00 | 0.00 | 0.00 | 60 | 1010.6 |
| 20260903182825 | 90 | 161 | 6.0 | 15.0 | 0.00 | 0.00 | 0.00 | 61 | 1010.7 |
| 20260903181352 | 90 | 189 | 7.0 | 17.0 | 0.00 | 0.00 | 0.00 | 61 | 1010.8 |
| 20260903180834 | 90 | 193 | 7.0 | 16.0 | 0.00 | 0.00 | 0.00 | 61 | 1010.9 |
| 20260903175351 | 89 | 155 | 6.0 | 16.0 | 0.00 | 0.00 | 0.00 | 62 | 1011.1 |
| 20260903174353 | 88 | 190 | 4.0 | 11.0 | 0.00 | 0.00 | 0.00 | 64 | 1011.3 |
| 20260903173352 | 88 | 187 | 5.0 | 13.0 | 0.00 | 0.00 | 0.00 | 64 | 1011.4 |
| 20260903172841 | 89 | 135 | 5.0 | 12.0 | 0.00 | 0.00 | 0.00 | 63 | 1011.5 |
| 20260903171756 | 89 | 161 | 6.0 | 14.0 | 0.00 | 0.00 | 0.00 | 64 | 1011.5 |
| 20260903171435 | 89 | 148 | 7.0 | 15.0 | 0.00 | 0.00 | 0.00 | 62 | 1011.5 |
| 20260903165845 | 88 | 158 | 5.0 | 12.0 | 0.00 | 0.00 | 0.00 | 65 | 1011.6 |
| 20260903164350 | 87 | 157 | 5.0 | 16.0 | 0.00 | 0.00 | 0.00 | 66 | 1011.6 |
| 20260903163350 | 86 | 140 | 4.0 | 11.0 | 0.00 | 0.00 | 0.00 | 69 | 1011.7 |
| 20260903162839 | 85 | 118 | 3.0 | 9.0 | 0.00 | 0.00 | 0.00 | 72 | 1011.8 |
| 20260903161351 | 83 | 169 | 5.0 | 12.0 | 0.00 | 0.00 | 0.00 | 73 | 1011.9 |
| 20260903160351 | 83 | 182 | 4.0 | 11.0 | 0.00 | 0.00 | 0.00 | 74 | 1011.9 |
| 20260903155911 | 82 | 167 | 4.0 | 9.0 | 0.00 | 0.00 | 0.00 | 74 | 1011.9 |
| 20260903154347 | 82 | 191 | 3.0 | 10.0 | 0.00 | 0.00 | 0.00 | 74 | 1011.8 |
| 20260903153421 | 82 | 165 | 2.0 | 8.0 | 0.00 | 0.00 | 0.00 | 74 | 1011.7 |
| 20260903153001 | 82 | 144 | 3.0 | 9.0 | 0.00 | 0.00 | 0.00 | 75 | 1011.7 |
| 20260903152433 | 82 | 144 | 3.0 | 9.0 | 0.00 | 0.00 | 0.00 | 75 | 1011.7 |
| 20260903151344 | 82 | 162 | 2.0 | 8.0 | 0.00 | 0.00 | 0.00 | 75 | 1011.8 |
| 20260903150433 | 82 | 155 | 3.0 | 7.0 | 0.00 | 0.00 | 0.00 | 74 | 1011.9 |
| 20260903145345 | 82 | 142 | 2.0 | 8.0 | 0.00 | 0.00 | 0.00 | 73 | 1011.9 |
| 20260903144343 | 83 | 155 | 2.0 | 6.0 | 0.00 | 0.00 | 0.00 | 72 | 1011.9 |
| 20260903143448 | 83 | 130 | 2.0 | 6.0 | 0.00 | 0.00 | 0.00 | 73 | 1011.8 |
| 20260903142344 | 83 | 162 | 2.0 | 7.0 | 0.00 | 0.00 | 0.00 | 73 | 1011.8 |
| 20260903141345 | 82 | 120 | 1.0 | 4.0 | 0.00 | 0.00 | 0.00 | 75 | 1011.6 |
| 20260903140345 | 81 | 106 | 2.0 | 4.0 | 0.00 | 0.00 | 0.00 | 77 | 1011.8 |
| 20260903135828 | 80 | 77 | 1.0 | 4.0 | 0.00 | 0.00 | 0.00 | 78 | 1011.8 |
| 20260903134343 | 79 | 174 | 2.0 | 7.0 | 0.00 | 0.00 | 0.00 | 79 | 1011.6 |
| 20260903133341 | 78 | 170 | 0.0 | 4.0 | 0.00 | 0.00 | 0.00 | 80 | 1011.6 |
| 20260903132343 | 78 | 170 | 0.0 | 2.0 | 0.00 | 0.00 | 0.00 | 79 | 1011.5 |
| 20260903131342 | 78 | 170 | 0.0 | 2.0 | 0.00 | 0.00 | 0.00 | 79 | 1011.7 |
| 20260903130342 | 77 | 170 | 0.0 | 3.0 | 0.00 | 0.00 | 0.00 | 79 | 1011.6 |
| 20260903125341 | 77 | 178 | 0.0 | 3.0 | 0.00 | 0.00 | 0.00 | 79 | 1011.7 |
| 20260903124341 | 77 | 162 | 0.0 | 3.0 | 0.00 | 0.00 | 0.00 | 79 | 1011.6 |
| 20260903123343 | 77 | 80 | 0.0 | 3.0 | 0.00 | 0.00 | 0.00 | 79 | 1011.5 |
| 20260903122343 | 77 | 75 | 1.0 | 4.0 | 0.00 | 0.00 | 0.00 | 78 | 1011.4 |
| 20260903121345 | 77 | 101 | 2.0 | 6.0 | 0.00 | 0.00 | 0.00 | 78 | 1011.5 |
| 20260903120339 | 77 | 83 | 2.0 | 6.0 | 0.00 | 0.00 | 0.00 | 78 | 1011.3 |
| 20260903115341 | 77 | 86 | 3.0 | 8.0 | 0.00 | 0.00 | 0.00 | 78 | 1011.2 |
| 20260903114339 | 77 | 73 | 2.0 | 7.0 | 0.00 | 0.00 | 0.00 | 78 | 1011.2 |
| 20260903113820 | 77 | 76 | 2.0 | 5.0 | 0.00 | 0.00 | 0.00 | 78 | 1011.1 |
| 20260903112339 | 77 | 91 | 2.0 | 6.0 | 0.00 | 0.00 | 0.00 | 78 | 1011.1 |
| 20260903111340 | 77 | 88 | 2.0 | 4.0 | 0.00 | 0.00 | 0.00 | 77 | 1011.1 |
| 20260903110340 | 77 | 90 | 2.0 | 4.0 | 0.00 | 0.00 | 0.00 | 77 | 1010.8 |
| 20260903105335 | 77 | 96 | 1.0 | 5.0 | 0.00 | 0.00 | 0.00 | 77 | 1010.8 |
| 20260903104334 | 77 | 79 | 2.0 | 4.0 | 0.00 | 0.00 | 0.00 | 77 | 1010.8 |
| 20260903103336 | 77 | 86 | 1.0 | 3.0 | 0.00 | 0.00 | 0.00 | 76 | 1010.9 |
| 20260903102331 | 77 | 174 | 1.0 | 3.0 | 0.00 | 0.00 | 0.00 | 76 | 1010.8 |
| 20260903101329 | 77 | 174 | 1.0 | 2.0 | 0.00 | 0.00 | 0.00 | 76 | 1010.8 |
| 20260903100334 | 77 | 174 | 0.0 | 2.0 | 0.00 | 0.00 | 0.00 | 76 | 1010.8 |
| 20260903095329 | 77 | 174 | 0.0 | 2.0 | 0.00 | 0.00 | 0.00 | 75 | 1010.8 |
| 20260903094327 | 77 | 174 | 0.0 | 0.0 | 0.00 | 0.00 | 0.00 | 75 | 1010.7 |
| 20260903093806 | 77 | 174 | 0.0 | 1.0 | 0.00 | 0.00 | 0.00 | 75 | 1010.7 |
| 20260903092329 | 78 | 174 | 0.0 | 1.0 | 0.00 | 0.00 | 0.00 | 74 | 1010.7 |
| 20260903091325 | 78 | 174 | 0.0 | 1.0 | 0.00 | 0.00 | 0.00 | 74 | 1010.8 |
| 20260903090325 | 78 | 174 | 0.0 | 1.0 | 0.00 | 0.00 | 0.00 | 74 | 1010.9 |
| 20260903085327 | 78 | 174 | 1.0 | 2.0 | 0.00 | 0.00 | 0.00 | 74 | 1011.2 |
| 20260903084325 | 78 | 174 | 1.0 | 3.0 | 0.00 | 0.00 | 0.00 | 73 | 1010.9 |
| 20260903083325 | 78 | 174 | 0.0 | 2.0 | 0.00 | 0.00 | 0.00 | 73 | 1011.1 |
| 20260903082325 | 78 | 174 | 1.0 | 5.0 | 0.00 | 0.00 | 0.00 | 73 | 1011.1 |
| 20260903081325 | 78 | 148 | 1.0 | 3.0 | 0.00 | 0.00 | 0.00 | 72 | 1011.1 |
| 20260903080326 | 79 | 148 | 0.0 | 2.0 | 0.00 | 0.00 | 0.00 | 71 | 1011.1 |
| 20260903075330 | 80 | 148 | 0.0 | 2.0 | 0.00 | 0.00 | 0.00 | 70 | 1010.9 |
| 20260903074326 | 80 | 148 | 1.0 | 3.0 | 0.00 | 0.00 | 0.00 | 70 | 1010.9 |
| 20260903073818 | 80 | 154 | 0.0 | 2.0 | 0.00 | 0.00 | 0.00 | 69 | 1010.9 |
| 20260903072825 | 81 | 154 | 0.0 | 2.0 | 0.00 | 0.00 | 0.00 | 68 | 1010.9 |
| 20260903071325 | 81 | 154 | 1.0 | 3.0 | 0.00 | 0.00 | 0.00 | 68 | 1011.1 |
| 20260903070327 | 81 | 116 | 1.0 | 3.0 | 0.00 | 0.00 | 0.00 | 67 | 1011.1 |
| 20260903065319 | 81 | 148 | 1.0 | 4.0 | 0.00 | 0.00 | 0.00 | 67 | 1011.3 |
| 20260903064318 | 82 | 219 | 1.0 | 4.0 | 0.00 | 0.00 | 0.00 | 66 | 1011.4 |
| 20260903063317 | 82 | 105 | 1.0 | 4.0 | 0.00 | 0.00 | 0.00 | 66 | 1011.4 |
| 20260903062317 | 82 | 119 | 1.0 | 6.0 | 0.00 | 0.00 | 0.00 | 65 | 1011.5 |
| 20260903061317 | 82 | 83 | 1.0 | 7.0 | 0.00 | 0.00 | 0.00 | 64 | 1011.6 |
| 20260903060318 | 83 | 78 | 2.0 | 7.0 | 0.00 | 0.00 | 0.00 | 64 | 1011.7 |
| 20260903055318 | 83 | 90 | 1.0 | 4.0 | 0.00 | 0.00 | 0.00 | 63 | 1011.7 |
| 20260903054317 | 83 | 134 | 2.0 | 8.0 | 0.00 | 0.00 | 0.00 | 63 | 1011.6 |
| 20260903053319 | 83 | 94 | 1.0 | 5.0 | 0.00 | 0.00 | 0.00 | 63 | 1011.5 |
| 20260903052317 | 84 | 126 | 0.0 | 3.0 | 0.00 | 0.00 | 0.00 | 62 | 1011.6 |
| 20260903051319 | 84 | 74 | 1.0 | 6.0 | 0.00 | 0.00 | 0.00 | 62 | 1011.6 |
| 20260903050319 | 84 | 89 | 1.0 | 11.0 | 0.00 | 0.00 | 0.00 | 61 | 1011.4 |
| 20260903045315 | 85 | 71 | 1.0 | 6.0 | 0.00 | 0.00 | 0.00 | 61 | 1011.3 |
| 20260903044315 | 85 | 95 | 1.0 | 6.0 | 0.00 | 0.00 | 0.00 | 60 | 1011.4 |
| 20260903043316 | 85 | 93 | 1.0 | 7.0 | 0.00 | 0.00 | 0.00 | 60 | 1011.4 |
| 20260903042757 | 86 | 83 | 1.0 | 8.0 | 0.00 | 0.00 | 0.00 | 59 | 1011.4 |
| 20260903041313 | 86 | 74 | 2.0 | 7.0 | 0.00 | 0.00 | 0.00 | 59 | 1011.5 |
| 20260903040314 | 87 | 96 | 2.0 | 8.0 | 0.00 | 0.00 | 0.00 | 58 | 1011.5 |
| 20260903035315 | 87 | 85 | 2.0 | 8.0 | 0.00 | 0.00 | 0.00 | 57 | 1011.5 |
| 20260903034312 | 88 | 67 | 2.0 | 8.0 | 0.00 | 0.00 | 0.00 | 56 | 1011.5 |
| 20260903033311 | 88 | 111 | 2.0 | 10.0 | 0.00 | 0.00 | 0.00 | 55 | 1011.6 |
| 20260903032745 | 89 | 96 | 2.0 | 8.0 | 0.00 | 0.00 | 0.00 | 54 | 1011.3 |
| 20260903031309 | 89 | 87 | 2.0 | 9.0 | 0.00 | 0.00 | 0.00 | 54 | 1011.2 |
| 20260903030310 | 89 | 104 | 2.0 | 8.0 | 0.00 | 0.00 | 0.00 | 54 | 1011.1 |
| 20260903025310 | 90 | 134 | 2.0 | 7.0 | 0.00 | 0.00 | 0.00 | 53 | 1010.8 |
| 20260903024739 | 90 | 175 | 2.0 | 7.0 | 0.00 | 0.00 | 0.00 | 53 | 1010.7 |
| 20260903023307 | 91 | 128 | 1.0 | 6.0 | 0.00 | 0.00 | 0.00 | 52 | 1010.7 |
| 20260903022306 | 91 | 146 | 2.0 | 6.0 | 0.00 | 0.00 | 0.00 | 51 | 1010.5 |
| 20260903021754 | 91 | 94 | 2.0 | 14.0 | 0.00 | 0.00 | 0.00 | 50 | 1010.3 |
| 20260903020306 | 92 | 88 | 3.0 | 8.0 | 0.00 | 0.00 | 0.00 | 50 | 1010.2 |
| 20260903015711 | 92 | 53 | 3.0 | 9.0 | 0.00 | 0.00 | 0.00 | 49 | 1010.0 |
| 20260903015346 | 92 | 84 | 3.0 | 10.0 | 0.00 | 0.00 | 0.00 | 49 | 1010.1 |
| 20260903013300 | 92 | 97 | 2.0 | 10.0 | 0.00 | 0.00 | 0.00 | 48 | 1009.9 |
| 20260903012256 | 92 | 78 | 5.0 | 15.0 | 0.00 | 0.00 | 0.00 | 48 | 1009.8 |
| 20260903011257 | 93 | 73 | 5.0 | 10.0 | 0.00 | 0.00 | 0.00 | 47 | 1009.7 |
| 20260903010736 | 93 | 88 | 7.0 | 15.0 | 0.00 | 0.00 | 0.00 | 47 | 1009.7 |
| 20260903005739 | 94 | 84 | 6.0 | 14.0 | 0.00 | 0.00 | 0.00 | 46 | 1009.6 |
| 20260903004253 | 95 | 88 | 3.0 | 9.0 | 0.00 | 0.00 | 0.00 | 42 | 1009.5 |
| 20260903003251 | 96 | 101 | 4.0 | 9.0 | 0.00 | 0.00 | 0.00 | 41 | 1009.5 |
| 20260903002249 | 96 | 36 | 3.0 | 8.0 | 0.00 | 0.00 | 0.00 | 41 | 1009.4 |
| 20260903001249 | 96 | 90 | 3.0 | 9.0 | 0.00 | 0.00 | 0.00 | 40 | 1009.4 |
| 20260903000742 | 96 | 176 | 3.0 | 9.0 | 0.00 | 0.00 | 0.00 | 40 | 1009.5 |
| 20260902235249 | 97 | 139 | 4.0 | 11.0 | 0.00 | 0.00 | 0.00 | 40 | 1009.4 |
| 20260902234741 | 97 | 72 | 4.0 | 10.0 | 0.00 | 0.00 | 0.00 | 40 | 1009.5 |
| 20260902233249 | 97 | 88 | 5.0 | 12.0 | 0.00 | 0.00 | 0.00 | 40 | 1009.5 |
| 20260902232249 | 97 | 76 | 4.0 | 10.0 | 0.00 | 0.00 | 0.00 | 41 | 1009.4 |
| 20260902231247 | 97 | 78 | 4.0 | 10.0 | 0.00 | 0.00 | 0.00 | 41 | 1009.4 |
| 20260902230247 | 97 | 13 | 4.0 | 10.0 | 0.00 | 0.00 | 0.00 | 42 | 1009.3 |
| 20260902225244 | 97 | 104 | 5.0 | 12.0 | 0.00 | 0.00 | 0.00 | 40 | 1009.5 |
| 20260902224242 | 97 | 86 | 5.0 | 12.0 | 0.00 | 0.00 | 0.00 | 39 | 1009.6 |
| 20260902223242 | 97 | 71 | 4.0 | 10.0 | 0.00 | 0.00 | 0.00 | 39 | 1009.5 |
| 20260902222247 | 97 | 49 | 4.0 | 9.0 | 0.00 | 0.00 | 0.00 | 40 | 1009.7 |
| 20260902221243 | 97 | 67 | 6.0 | 13.0 | 0.00 | 0.00 | 0.00 | 40 | 1009.7 |
| 20260902220241 | 97 | 74 | 5.0 | 12.0 | 0.00 | 0.00 | 0.00 | 40 | 1009.7 |
| 20260902215239 | 97 | 74 | 5.0 | 14.0 | 0.00 | 0.00 | 0.00 | 41 | 1009.8 |
| 20260902214239 | 97 | 101 | 5.0 | 14.0 | 0.00 | 0.00 | 0.00 | 41 | 1009.9 |
| 20260902213238 | 97 | 48 | 5.0 | 12.0 | 0.00 | 0.00 | 0.00 | 40 | 1010.0 |
| 20260902212238 | 97 | 85 | 4.0 | 11.0 | 0.00 | 0.00 | 0.00 | 41 | 1010.1 |
| 20260902212201 | 97 | 136 | 6.0 | 13.0 | 0.00 | 0.00 | 0.00 | 41 | 1010.2 |
| 20260902210237 | 97 | 88 | 4.0 | 11.0 | 0.00 | 0.00 | 0.00 | 41 | 1010.3 |
| 20260902205238 | 97 | 88 | 6.0 | 12.0 | 0.00 | 0.00 | 0.00 | 42 | 1010.4 |
| 20260902204238 | 97 | 82 | 3.0 | 12.0 | 0.00 | 0.00 | 0.00 | 43 | 1010.3 |
| 20260902203721 | 97 | 64 | 4.0 | 10.0 | 0.00 | 0.00 | 0.00 | 43 | 1010.6 |